Retour au catalogue

SL-8 R/B

ActifLEO
NORAD 10938·ROCKET BODY·🇷🇺 Russia

Lancé Jun 7, 1978 depuis Plesetsk Cosmodrome

Loading…

Prochains Passages (prochaines 24 heures)

TLE

FraisSource: Space-Track

Époque: Sep 14, 2026, 11:24 UTC

1 10938U 78056J   26257.47522619  .00000009  00000-0  21701-3 0  9998
2 10938  74.0245 338.2389 0133169 358.3872  13.1165 12.21540953152546

Suivez SL-8 R/B en temps réel avec AllMySat

Download on the App Store